<?xml version="1.0"?>
<gpx xmlns="http://www.topografix.com/GPX/1/1" xmlns:xsi="http://www.w3.org/2001/XMLSchema-instance" version="1.1" creator="GPX RubyGem 1.0.0 -- http://dougfales.github.io/gpx/" xsi:schemaLocation="http://www.topografix.com/GPX/1/1 http://www.topografix.com/GPX/1/1/gpx.xsd">
  <metadata>
    <name/>
    <time>2026-05-08T12:10:21+00:00</time>
    <bound minlat="90.0" minlon="180.0" maxlat="-90.0" maxlon="-180.0"/>
  </metadata>
  <trk>
    <name/>
    <trkseg>
      <trkpt lat="46.9714" lon="6.277933">
        <time>1970-01-01T00:00:00+00:00</time>
        <ele>738.0</ele>
      </trkpt>
      <trkpt lat="46.971362" lon="6.27804">
        <time>1970-01-01T00:00:00+00:00</time>
        <ele>738.0</ele>
      </trkpt>
      <trkpt lat="46.971375" lon="6.278137">
        <time>1970-01-01T00:00:00+00:00</time>
        <ele>738.0</ele>
      </trkpt>
      <trkpt lat="46.971506" lon="6.278283">
        <time>1970-01-01T00:00:00+00:00</time>
        <ele>738.0</ele>
      </trkpt>
      <trkpt lat="46.971072" lon="6.279054">
        <time>1970-01-01T00:00:00+00:00</time>
        <ele>739.0</ele>
      </trkpt>
      <trkpt lat="46.97086" lon="6.279357">
        <time>1970-01-01T00:00:00+00:00</time>
        <ele>740.0</ele>
      </trkpt>
      <trkpt lat="46.970819" lon="6.279417">
        <time>1970-01-01T00:00:00+00:00</time>
        <ele>740.0</ele>
      </trkpt>
      <trkpt lat="46.970779" lon="6.279528">
        <time>1970-01-01T00:00:00+00:00</time>
        <ele>740.0</ele>
      </trkpt>
      <trkpt lat="46.970766" lon="6.279718">
        <time>1970-01-01T00:00:00+00:00</time>
        <ele>740.0</ele>
      </trkpt>
      <trkpt lat="46.970779" lon="6.279913">
        <time>1970-01-01T00:00:00+00:00</time>
        <ele>741.0</ele>
      </trkpt>
      <trkpt lat="46.970836" lon="6.280126">
        <time>1970-01-01T00:00:00+00:00</time>
        <ele>741.0</ele>
      </trkpt>
      <trkpt lat="46.97099" lon="6.280403">
        <time>1970-01-01T00:00:00+00:00</time>
        <ele>742.0</ele>
      </trkpt>
      <trkpt lat="46.971556" lon="6.281316">
        <time>1970-01-01T00:00:00+00:00</time>
        <ele>744.0</ele>
      </trkpt>
      <trkpt lat="46.971699" lon="6.281445">
        <time>1970-01-01T00:00:00+00:00</time>
        <ele>743.0</ele>
      </trkpt>
      <trkpt lat="46.971931" lon="6.281522">
        <time>1970-01-01T00:00:00+00:00</time>
        <ele>743.0</ele>
      </trkpt>
      <trkpt lat="46.9719" lon="6.281786">
        <time>1970-01-01T00:00:00+00:00</time>
        <ele>744.0</ele>
      </trkpt>
      <trkpt lat="46.971859" lon="6.281972">
        <time>1970-01-01T00:00:00+00:00</time>
        <ele>745.0</ele>
      </trkpt>
      <trkpt lat="46.971689" lon="6.282339">
        <time>1970-01-01T00:00:00+00:00</time>
        <ele>745.0</ele>
      </trkpt>
      <trkpt lat="46.971444" lon="6.28306">
        <time>1970-01-01T00:00:00+00:00</time>
        <ele>750.0</ele>
      </trkpt>
      <trkpt lat="46.971529" lon="6.283115">
        <time>1970-01-01T00:00:00+00:00</time>
        <ele>749.0</ele>
      </trkpt>
      <trkpt lat="46.971643" lon="6.283299">
        <time>1970-01-01T00:00:00+00:00</time>
        <ele>750.0</ele>
      </trkpt>
      <trkpt lat="46.971962" lon="6.283836">
        <time>1970-01-01T00:00:00+00:00</time>
        <ele>748.0</ele>
      </trkpt>
      <trkpt lat="46.971925" lon="6.283987">
        <time>1970-01-01T00:00:00+00:00</time>
        <ele>750.0</ele>
      </trkpt>
      <trkpt lat="46.971928" lon="6.284062">
        <time>1970-01-01T00:00:00+00:00</time>
        <ele>751.0</ele>
      </trkpt>
      <trkpt lat="46.971969" lon="6.284289">
        <time>1970-01-01T00:00:00+00:00</time>
        <ele>753.0</ele>
      </trkpt>
      <trkpt lat="46.972068" lon="6.284647">
        <time>1970-01-01T00:00:00+00:00</time>
        <ele>756.0</ele>
      </trkpt>
      <trkpt lat="46.972124" lon="6.284849">
        <time>1970-01-01T00:00:00+00:00</time>
        <ele>758.0</ele>
      </trkpt>
      <trkpt lat="46.972293" lon="6.285227">
        <time>1970-01-01T00:00:00+00:00</time>
        <ele>759.0</ele>
      </trkpt>
      <trkpt lat="46.972255" lon="6.286358">
        <time>1970-01-01T00:00:00+00:00</time>
        <ele>769.0</ele>
      </trkpt>
      <trkpt lat="46.972295" lon="6.286667">
        <time>1970-01-01T00:00:00+00:00</time>
        <ele>773.0</ele>
      </trkpt>
      <trkpt lat="46.972323" lon="6.286805">
        <time>1970-01-01T00:00:00+00:00</time>
        <ele>774.0</ele>
      </trkpt>
      <trkpt lat="46.972375" lon="6.286955">
        <time>1970-01-01T00:00:00+00:00</time>
        <ele>776.0</ele>
      </trkpt>
      <trkpt lat="46.973217" lon="6.288398">
        <time>1970-01-01T00:00:00+00:00</time>
        <ele>792.0</ele>
      </trkpt>
      <trkpt lat="46.973571" lon="6.28884">
        <time>1970-01-01T00:00:00+00:00</time>
        <ele>799.0</ele>
      </trkpt>
      <trkpt lat="46.973667" lon="6.288994">
        <time>1970-01-01T00:00:00+00:00</time>
        <ele>801.0</ele>
      </trkpt>
      <trkpt lat="46.973984" lon="6.289783">
        <time>1970-01-01T00:00:00+00:00</time>
        <ele>806.0</ele>
      </trkpt>
      <trkpt lat="46.974044" lon="6.289912">
        <time>1970-01-01T00:00:00+00:00</time>
        <ele>807.0</ele>
      </trkpt>
      <trkpt lat="46.974277" lon="6.290309">
        <time>1970-01-01T00:00:00+00:00</time>
        <ele>811.0</ele>
      </trkpt>
      <trkpt lat="46.974446" lon="6.290679">
        <time>1970-01-01T00:00:00+00:00</time>
        <ele>812.0</ele>
      </trkpt>
      <trkpt lat="46.974495" lon="6.290819">
        <time>1970-01-01T00:00:00+00:00</time>
        <ele>813.0</ele>
      </trkpt>
      <trkpt lat="46.97458" lon="6.291205">
        <time>1970-01-01T00:00:00+00:00</time>
        <ele>815.0</ele>
      </trkpt>
      <trkpt lat="46.974648" lon="6.291664">
        <time>1970-01-01T00:00:00+00:00</time>
        <ele>818.0</ele>
      </trkpt>
      <trkpt lat="46.974656" lon="6.291834">
        <time>1970-01-01T00:00:00+00:00</time>
        <ele>819.0</ele>
      </trkpt>
      <trkpt lat="46.97463" lon="6.292513">
        <time>1970-01-01T00:00:00+00:00</time>
        <ele>825.0</ele>
      </trkpt>
      <trkpt lat="46.974671" lon="6.29331">
        <time>1970-01-01T00:00:00+00:00</time>
        <ele>830.0</ele>
      </trkpt>
      <trkpt lat="46.974658" lon="6.293408">
        <time>1970-01-01T00:00:00+00:00</time>
        <ele>831.0</ele>
      </trkpt>
      <trkpt lat="46.974612" lon="6.29349">
        <time>1970-01-01T00:00:00+00:00</time>
        <ele>832.0</ele>
      </trkpt>
      <trkpt lat="46.974545" lon="6.293523">
        <time>1970-01-01T00:00:00+00:00</time>
        <ele>833.0</ele>
      </trkpt>
      <trkpt lat="46.974437" lon="6.293529">
        <time>1970-01-01T00:00:00+00:00</time>
        <ele>834.0</ele>
      </trkpt>
      <trkpt lat="46.974367" lon="6.293467">
        <time>1970-01-01T00:00:00+00:00</time>
        <ele>835.0</ele>
      </trkpt>
      <trkpt lat="46.974338" lon="6.293261">
        <time>1970-01-01T00:00:00+00:00</time>
        <ele>834.0</ele>
      </trkpt>
      <trkpt lat="46.974276" lon="6.292769">
        <time>1970-01-01T00:00:00+00:00</time>
        <ele>832.0</ele>
      </trkpt>
      <trkpt lat="46.97406" lon="6.291893">
        <time>1970-01-01T00:00:00+00:00</time>
        <ele>829.0</ele>
      </trkpt>
      <trkpt lat="46.973789" lon="6.291022">
        <time>1970-01-01T00:00:00+00:00</time>
        <ele>826.0</ele>
      </trkpt>
      <trkpt lat="46.973567" lon="6.290389">
        <time>1970-01-01T00:00:00+00:00</time>
        <ele>824.0</ele>
      </trkpt>
      <trkpt lat="46.973417" lon="6.290213">
        <time>1970-01-01T00:00:00+00:00</time>
        <ele>824.0</ele>
      </trkpt>
      <trkpt lat="46.973094" lon="6.289962">
        <time>1970-01-01T00:00:00+00:00</time>
        <ele>825.0</ele>
      </trkpt>
      <trkpt lat="46.972273" lon="6.289093">
        <time>1970-01-01T00:00:00+00:00</time>
        <ele>827.0</ele>
      </trkpt>
      <trkpt lat="46.972097" lon="6.288943">
        <time>1970-01-01T00:00:00+00:00</time>
        <ele>827.0</ele>
      </trkpt>
      <trkpt lat="46.971853" lon="6.289189">
        <time>1970-01-01T00:00:00+00:00</time>
        <ele>832.0</ele>
      </trkpt>
      <trkpt lat="46.971766" lon="6.289334">
        <time>1970-01-01T00:00:00+00:00</time>
        <ele>835.0</ele>
      </trkpt>
      <trkpt lat="46.971714" lon="6.289528">
        <time>1970-01-01T00:00:00+00:00</time>
        <ele>837.0</ele>
      </trkpt>
      <trkpt lat="46.971589" lon="6.289872">
        <time>1970-01-01T00:00:00+00:00</time>
        <ele>841.0</ele>
      </trkpt>
      <trkpt lat="46.971555" lon="6.290018">
        <time>1970-01-01T00:00:00+00:00</time>
        <ele>842.0</ele>
      </trkpt>
      <trkpt lat="46.971538" lon="6.290211">
        <time>1970-01-01T00:00:00+00:00</time>
        <ele>845.0</ele>
      </trkpt>
      <trkpt lat="46.971541" lon="6.290466">
        <time>1970-01-01T00:00:00+00:00</time>
        <ele>848.0</ele>
      </trkpt>
      <trkpt lat="46.971653" lon="6.291201">
        <time>1970-01-01T00:00:00+00:00</time>
        <ele>854.0</ele>
      </trkpt>
      <trkpt lat="46.971775" lon="6.292534">
        <time>1970-01-01T00:00:00+00:00</time>
        <ele>865.0</ele>
      </trkpt>
      <trkpt lat="46.971868" lon="6.293213">
        <time>1970-01-01T00:00:00+00:00</time>
        <ele>869.0</ele>
      </trkpt>
      <trkpt lat="46.971906" lon="6.293387">
        <time>1970-01-01T00:00:00+00:00</time>
        <ele>870.0</ele>
      </trkpt>
      <trkpt lat="46.97206" lon="6.293904">
        <time>1970-01-01T00:00:00+00:00</time>
        <ele>873.0</ele>
      </trkpt>
      <trkpt lat="46.97176" lon="6.294199">
        <time>1970-01-01T00:00:00+00:00</time>
        <ele>880.0</ele>
      </trkpt>
      <trkpt lat="46.971261" lon="6.294557">
        <time>1970-01-01T00:00:00+00:00</time>
        <ele>891.0</ele>
      </trkpt>
      <trkpt lat="46.971042" lon="6.294635">
        <time>1970-01-01T00:00:00+00:00</time>
        <ele>895.0</ele>
      </trkpt>
      <trkpt lat="46.9713" lon="6.295151">
        <time>1970-01-01T00:00:00+00:00</time>
        <ele>898.0</ele>
      </trkpt>
      <trkpt lat="46.971526" lon="6.295678">
        <time>1970-01-01T00:00:00+00:00</time>
        <ele>899.0</ele>
      </trkpt>
      <trkpt lat="46.971781" lon="6.296323">
        <time>1970-01-01T00:00:00+00:00</time>
        <ele>899.0</ele>
      </trkpt>
      <trkpt lat="46.971781" lon="6.296323">
        <time>1970-01-01T00:00:00+00:00</time>
        <ele>899.0</ele>
      </trkpt>
      <trkpt lat="46.971526" lon="6.295678">
        <time>1970-01-01T00:00:00+00:00</time>
        <ele>899.0</ele>
      </trkpt>
      <trkpt lat="46.9713" lon="6.295151">
        <time>1970-01-01T00:00:00+00:00</time>
        <ele>898.0</ele>
      </trkpt>
      <trkpt lat="46.971042" lon="6.294635">
        <time>1970-01-01T00:00:00+00:00</time>
        <ele>895.0</ele>
      </trkpt>
      <trkpt lat="46.970256" lon="6.293016">
        <time>1970-01-01T00:00:00+00:00</time>
        <ele>888.0</ele>
      </trkpt>
      <trkpt lat="46.969703" lon="6.29174">
        <time>1970-01-01T00:00:00+00:00</time>
        <ele>879.0</ele>
      </trkpt>
      <trkpt lat="46.969311" lon="6.290951">
        <time>1970-01-01T00:00:00+00:00</time>
        <ele>875.0</ele>
      </trkpt>
      <trkpt lat="46.96882" lon="6.290145">
        <time>1970-01-01T00:00:00+00:00</time>
        <ele>873.0</ele>
      </trkpt>
      <trkpt lat="46.968303" lon="6.289095">
        <time>1970-01-01T00:00:00+00:00</time>
        <ele>869.0</ele>
      </trkpt>
      <trkpt lat="46.968097" lon="6.288781">
        <time>1970-01-01T00:00:00+00:00</time>
        <ele>869.0</ele>
      </trkpt>
      <trkpt lat="46.967604" lon="6.288192">
        <time>1970-01-01T00:00:00+00:00</time>
        <ele>869.0</ele>
      </trkpt>
      <trkpt lat="46.966715" lon="6.287226">
        <time>1970-01-01T00:00:00+00:00</time>
        <ele>871.0</ele>
      </trkpt>
      <trkpt lat="46.966077" lon="6.286085">
        <time>1970-01-01T00:00:00+00:00</time>
        <ele>867.0</ele>
      </trkpt>
      <trkpt lat="46.965695" lon="6.285509">
        <time>1970-01-01T00:00:00+00:00</time>
        <ele>867.0</ele>
      </trkpt>
      <trkpt lat="46.964606" lon="6.283756">
        <time>1970-01-01T00:00:00+00:00</time>
        <ele>862.0</ele>
      </trkpt>
      <trkpt lat="46.964216" lon="6.283162">
        <time>1970-01-01T00:00:00+00:00</time>
        <ele>860.0</ele>
      </trkpt>
      <trkpt lat="46.963933" lon="6.282773">
        <time>1970-01-01T00:00:00+00:00</time>
        <ele>859.0</ele>
      </trkpt>
      <trkpt lat="46.964847" lon="6.28189">
        <time>1970-01-01T00:00:00+00:00</time>
        <ele>844.0</ele>
      </trkpt>
      <trkpt lat="46.96492" lon="6.281844">
        <time>1970-01-01T00:00:00+00:00</time>
        <ele>843.0</ele>
      </trkpt>
      <trkpt lat="46.965082" lon="6.281783">
        <time>1970-01-01T00:00:00+00:00</time>
        <ele>842.0</ele>
      </trkpt>
      <trkpt lat="46.965324" lon="6.281692">
        <time>1970-01-01T00:00:00+00:00</time>
        <ele>840.0</ele>
      </trkpt>
      <trkpt lat="46.965469" lon="6.281596">
        <time>1970-01-01T00:00:00+00:00</time>
        <ele>838.0</ele>
      </trkpt>
      <trkpt lat="46.965703" lon="6.28138">
        <time>1970-01-01T00:00:00+00:00</time>
        <ele>834.0</ele>
      </trkpt>
      <trkpt lat="46.965825" lon="6.281311">
        <time>1970-01-01T00:00:00+00:00</time>
        <ele>832.0</ele>
      </trkpt>
      <trkpt lat="46.966064" lon="6.281291">
        <time>1970-01-01T00:00:00+00:00</time>
        <ele>828.0</ele>
      </trkpt>
      <trkpt lat="46.966179" lon="6.281281">
        <time>1970-01-01T00:00:00+00:00</time>
        <ele>826.0</ele>
      </trkpt>
      <trkpt lat="46.966471" lon="6.281321">
        <time>1970-01-01T00:00:00+00:00</time>
        <ele>820.0</ele>
      </trkpt>
      <trkpt lat="46.967298" lon="6.281781">
        <time>1970-01-01T00:00:00+00:00</time>
        <ele>801.0</ele>
      </trkpt>
      <trkpt lat="46.967636" lon="6.282022">
        <time>1970-01-01T00:00:00+00:00</time>
        <ele>796.0</ele>
      </trkpt>
      <trkpt lat="46.968022" lon="6.282193">
        <time>1970-01-01T00:00:00+00:00</time>
        <ele>791.0</ele>
      </trkpt>
      <trkpt lat="46.968135" lon="6.282199">
        <time>1970-01-01T00:00:00+00:00</time>
        <ele>789.0</ele>
      </trkpt>
      <trkpt lat="46.968292" lon="6.282122">
        <time>1970-01-01T00:00:00+00:00</time>
        <ele>785.0</ele>
      </trkpt>
      <trkpt lat="46.968386" lon="6.282158">
        <time>1970-01-01T00:00:00+00:00</time>
        <ele>784.0</ele>
      </trkpt>
      <trkpt lat="46.968034" lon="6.281668">
        <time>1970-01-01T00:00:00+00:00</time>
        <ele>782.0</ele>
      </trkpt>
      <trkpt lat="46.967404" lon="6.2806">
        <time>1970-01-01T00:00:00+00:00</time>
        <ele>779.0</ele>
      </trkpt>
      <trkpt lat="46.967307" lon="6.280311">
        <time>1970-01-01T00:00:00+00:00</time>
        <ele>777.0</ele>
      </trkpt>
      <trkpt lat="46.967243" lon="6.280062">
        <time>1970-01-01T00:00:00+00:00</time>
        <ele>776.0</ele>
      </trkpt>
      <trkpt lat="46.967331" lon="6.280041">
        <time>1970-01-01T00:00:00+00:00</time>
        <ele>774.0</ele>
      </trkpt>
      <trkpt lat="46.967437" lon="6.280112">
        <time>1970-01-01T00:00:00+00:00</time>
        <ele>773.0</ele>
      </trkpt>
      <trkpt lat="46.96777" lon="6.28052">
        <time>1970-01-01T00:00:00+00:00</time>
        <ele>771.0</ele>
      </trkpt>
      <trkpt lat="46.968166" lon="6.280923">
        <time>1970-01-01T00:00:00+00:00</time>
        <ele>769.0</ele>
      </trkpt>
      <trkpt lat="46.968368" lon="6.281043">
        <time>1970-01-01T00:00:00+00:00</time>
        <ele>766.0</ele>
      </trkpt>
      <trkpt lat="46.968643" lon="6.281124">
        <time>1970-01-01T00:00:00+00:00</time>
        <ele>763.0</ele>
      </trkpt>
      <trkpt lat="46.968823" lon="6.281214">
        <time>1970-01-01T00:00:00+00:00</time>
        <ele>763.0</ele>
      </trkpt>
      <trkpt lat="46.968967" lon="6.281286">
        <time>1970-01-01T00:00:00+00:00</time>
        <ele>763.0</ele>
      </trkpt>
      <trkpt lat="46.969335" lon="6.281546">
        <time>1970-01-01T00:00:00+00:00</time>
        <ele>761.0</ele>
      </trkpt>
      <trkpt lat="46.969837" lon="6.281671">
        <time>1970-01-01T00:00:00+00:00</time>
        <ele>758.0</ele>
      </trkpt>
      <trkpt lat="46.969891" lon="6.28148">
        <time>1970-01-01T00:00:00+00:00</time>
        <ele>756.0</ele>
      </trkpt>
      <trkpt lat="46.970042" lon="6.281271">
        <time>1970-01-01T00:00:00+00:00</time>
        <ele>753.0</ele>
      </trkpt>
      <trkpt lat="46.970836" lon="6.280126">
        <time>1970-01-01T00:00:00+00:00</time>
        <ele>741.0</ele>
      </trkpt>
      <trkpt lat="46.970779" lon="6.279913">
        <time>1970-01-01T00:00:00+00:00</time>
        <ele>741.0</ele>
      </trkpt>
      <trkpt lat="46.970766" lon="6.279718">
        <time>1970-01-01T00:00:00+00:00</time>
        <ele>740.0</ele>
      </trkpt>
      <trkpt lat="46.970779" lon="6.279528">
        <time>1970-01-01T00:00:00+00:00</time>
        <ele>740.0</ele>
      </trkpt>
      <trkpt lat="46.970819" lon="6.279417">
        <time>1970-01-01T00:00:00+00:00</time>
        <ele>740.0</ele>
      </trkpt>
      <trkpt lat="46.97086" lon="6.279357">
        <time>1970-01-01T00:00:00+00:00</time>
        <ele>740.0</ele>
      </trkpt>
      <trkpt lat="46.971072" lon="6.279054">
        <time>1970-01-01T00:00:00+00:00</time>
        <ele>739.0</ele>
      </trkpt>
      <trkpt lat="46.971506" lon="6.278283">
        <time>1970-01-01T00:00:00+00:00</time>
        <ele>738.0</ele>
      </trkpt>
      <trkpt lat="46.971375" lon="6.278137">
        <time>1970-01-01T00:00:00+00:00</time>
        <ele>738.0</ele>
      </trkpt>
      <trkpt lat="46.971362" lon="6.27804">
        <time>1970-01-01T00:00:00+00:00</time>
        <ele>738.0</ele>
      </trkpt>
      <trkpt lat="46.9714" lon="6.277933">
        <time>1970-01-01T00:00:00+00:00</time>
        <ele>738.0</ele>
      </trkpt>
    </trkseg>
  </trk>
</gpx>
